QPF
0.00 0.00 0.00 0.00 0.00 0.00 0.00 0.00 0.00 0.00 0.00 0.00 0.00 0.00 0.00 0.00 0.00 0.00 0.00 0.00 0.00 0.00 0.00 0.01 0.06 0.01 0.00 0.00 0.00 0.00 0.01 0.02 0.01 0.00 0.01 0.01 0.00 0.00 0.00 0.00 0.00 0.00 0.00 0.00 0.00 0.00 0.00 0.00 0.00
0.00 0.00 0.00 0.00 0.00 0.00 0.00 0.00 0.00 0.00 0.00 0.00 0.00 0.00 0.00 0.00 0.00 0.00 0.00 0.00 0.00 0.00 0.01 0.00 0.01 0.01 0.00 0.00 0.00 0.00 0.00 0.00 0.00 0.00 0.00 0.00 0.00 0.00 0.00 0.00 0.00 0.00 0.00 0.00 0.00 0.00 0.00 0.00 0.00
0.00 0.00 0.00 0.00 0.00 0.00 0.00 0.00 0.00 0.00 0.00 0.00 0.00 0.00 0.00 0.00 0.00 0.00 0.00 0.00 0.00 0.00 0.00 0.00 0.00 0.00 0.00 0.00 0.00 0.00 0.00 0.00 0.00 0.00 0.00 0.00 0.00 0.00 0.00 0.00 0.00 0.00 0.00 0.00 0.00 0.00 0.00 0.00 0.00
0.00 0.00 0.00 0.00 0.00 0.00 0.00 0.00 0.00 0.00 0.00 0.00 0.00 0.00 0.00 0.00 0.00 0.00 0.00 0.00 0.00 0.00 0.00 0.00 0.00 0.00 0.00 0.00 0.01 0.00 0.00 0.00 0.00 0.00 0.01 0.01 0.00 0.00 0.00 0.00 0.00 0.00 0.00 0.00 0.00 0.00 0.00 0.00 0.00
0.00 0.00 0.00 0.00 0.00 0.00 0.00 0.00 0.00 0.00 0.00 0.00 0.00 0.00 0.00 0.00 0.00 0.00 0.00 0.00 0.00 0.01 0.01 0.00 0.00 0.01 0.00 0.00 0.00 0.01 0.02 0.02 0.00 0.00 0.01 0.02 0.00 0.00 0.00 0.00 0.00 0.00 0.00 0.00 0.00 0.00 0.00 0.00 0.00
0.00 0.00 0.00 0.00 0.00 0.00 0.00 0.00 0.00 0.00 0.00 0.00 0.00 0.00 0.00 0.00 0.00 0.00 0.00 0.00 0.00 0.00 0.01 0.02 0.01 0.01 0.00 0.00 0.00 0.00 0.00 0.01 0.01 0.01 0.01 0.02 0.01 0.00 0.00 0.00 0.00 0.00 0.00 0.00 0.00 0.00 0.00 0.00 0.00
0.00 0.00 0.00 0.00 0.00 0.00 0.00 0.00 0.00 0.00 0.00 0.00 0.00 0.00 0.00 0.00 0.00 0.00 0.00 0.00 0.00 0.00 0.00 0.01 0.01 0.01 0.00 0.00 0.00 0.00 0.00 0.00 0.00 0.00 0.00 0.00 0.00 0.00 0.00 0.00 0.00 0.00 0.00 0.00 0.00 0.00 0.00 0.00 0.00
0.00 0.00 0.00 0.00 0.00 0.00 0.00 0.00 0.00 0.00 0.00 0.00 0.00 0.00 0.00 0.00 0.00 0.00 0.00 0.00 0.00 0.00 0.00 0.00 0.00 0.00 0.00 0.00 0.00 0.01 0.00 0.00 0.00 0.00 0.00 0.00 0.00 0.00 0.00 0.00 0.00 0.00 0.00 0.00 0.00 0.00 0.00 0.00 0.00
0.00 0.00 0.00 0.00 0.00 0.00 0.00 0.00 0.00 0.00 0.00 0.00 0.00 0.00 0.00 0.00 0.00 0.00 0.00 0.00 0.00 0.00 0.00 0.00 0.00 0.00 0.00 0.00 0.00 0.01 0.01 0.00 0.00 0.00 0.00 0.00 0.00 0.00 0.00 0.00 0.00 0.00 0.00 0.00 0.00 0.00 0.00 0.00 0.00
0.00 0.00 0.00 0.00 0.00 0.00 0.00 0.00 0.00 0.00 0.00 0.00 0.00 0.00 0.00 0.00 0.00 0.00 0.00 0.00 0.00 0.00 0.00 0.00 0.00 0.00 0.00 0.00 0.01 0.02 0.02 0.02 0.02 0.01 0.00 0.00 0.00 0.00 0.00 0.00 0.00 0.00 0.00 0.00 0.00 0.00 0.00 0.00 0.00
0.00 0.00 0.00 0.00 0.00 0.00 0.00 0.00 0.00 0.00 0.00 0.00 0.00 0.00 0.00 0.00 0.00 0.00 0.00 0.00 0.00 0.00 0.00 0.00 0.00 0.00 0.00 0.00 0.00 0.00 0.01 0.00 0.00 0.01 0.02 0.01 0.01 0.00 0.00 0.00 0.00 0.00 0.00 0.00 0.00 0.00 0.00 0.00 0.00
0.00 0.00 0.00 0.00 0.00 0.00 0.00 0.00 0.00 0.00 0.00 0.00 0.00 0.00 0.00 0.00 0.00 0.00 0.00 0.00 0.00 0.00 0.00 0.00 0.00 0.00 0.00 0.00 0.00 0.00 0.00 0.00 0.00 0.00 0.00 0.00 0.01 0.00 0.00 0.00 0.00 0.00 0.00 0.00 0.00 0.00 0.00 0.00 0.00
0.00 0.00 0.00 0.00 0.00 0.00 0.00 0.00 0.00 0.00 0.00 0.00 0.00 0.00 0.00 0.00 0.00 0.00 0.00 0.00 0.00 0.00 0.00 0.00 0.00 0.00 0.00 0.00 0.00 0.00 0.00 0.00 0.00 0.00 0.00 0.00 0.00 0.00 0.00 0.00 0.00 0.00 0.00 0.00 0.00 0.00 0.00 0.00 0.00
0.00 0.00 0.00 0.00 0.00 0.00 0.00 0.00 0.00 0.00 0.00 0.00 0.00 0.00 0.00 0.00 0.00 0.00 0.00 0.00 0.00 0.00 0.00 0.00 0.00 0.00 0.00 0.00 0.00 0.00 0.00 0.00 0.00 0.00 0.00 0.00 0.00 0.00 0.00 0.00 0.00 0.00 0.00 0.00 0.00 0.00 0.00 0.00 0.00
0.00 0.00 0.00 0.00 0.00 0.00 0.00 0.00 0.00 0.00 0.00 0.00 0.00 0.00 0.00 0.00 0.00 0.00 0.00 0.00 0.00 0.00 0.00 0.00 0.00 0.00 0.00 0.00 0.00 0.00 0.00 0.00 0.00 0.00 0.00 0.00 0.00 0.00 0.00 0.00 0.00 0.00 0.00 0.00 0.00 0.00 0.00 0.00 0.00
0.00 0.00 0.00 0.00 0.00 0.00 0.00 0.00 0.00 0.00 0.00 0.00 0.00 0.00 0.00 0.00 0.00 0.00 0.00 0.00 0.00 0.00 0.00 0.00 0.00 0.00 0.00 0.00 0.00 0.00 0.00 0.00 0.00 0.00 0.00 0.00 0.00 0.00 0.00 0.00 0.00 0.00 0.00 0.00 0.00 0.00 0.00 0.00 0.00
0.00 0.00 0.00 0.00 0.00 0.00 0.00 0.00 0.00 0.00 0.00 0.00 0.00 0.00 0.00 0.00 0.00 0.00 0.00 0.00 0.00 0.00 0.00 0.00 0.00 0.00 0.00 0.00 0.00 0.00 0.00 0.00 0.00 0.00 0.00 0.00 0.00 0.00 0.00 0.00 0.00 0.00 0.00 0.00 0.00 0.00 0.00 0.00 0.00
0.00 0.00 0.00 0.00 0.00 0.00 0.00 0.00 0.00 0.00 0.00 0.00 0.00 0.00 0.00 0.00 0.00 0.00 0.00 0.00 0.00 0.00 0.00 0.00 0.00 0.00 0.00 0.00 0.00 0.00 0.00 0.00 0.00 0.00 0.00 0.00 0.00 0.00 0.00 0.00 0.00 0.00 0.00 0.00 0.00 0.00 0.00 0.00 0.00
0.00 0.00 0.00 0.00 0.00 0.00 0.00 0.00 0.00 0.00 0.00 0.00 0.00 0.00 0.00 0.00 0.00 0.00 0.00 0.00 0.00 0.00 0.00 0.00 0.00 0.00 0.00 0.00 0.00 0.00 0.00 0.00 0.00 0.00 0.00 0.00 0.00 0.00 0.00 0.00 0.00 0.00 0.00 0.00 0.00 0.00 0.00 0.00 0.00
0.00 0.00 0.00 0.00 0.00 0.00 0.00 0.00 0.00 0.00 0.00 0.00 0.00 0.00 0.00 0.00 0.00 0.00 0.00 0.00 0.00 0.00 0.00 0.00 0.00 0.00 0.00 0.00 0.00 0.00 0.00 0.00 0.00 0.00 0.00 0.00 0.00 0.00 0.00 0.00 0.00 0.00 0.00 0.00 0.00 0.00 0.00 0.00 0.00
0.00 0.00 0.00 0.00 0.00 0.00 0.00 0.00 0.00 0.00 0.00 0.00 0.00 0.00 0.00 0.00 0.00 0.00 0.00 0.00 0.00 0.00 0.00 0.00 0.00 0.00 0.00 0.00 0.00 0.00 0.00 0.00 0.00 0.00 0.00 0.00 0.00 0.00 0.00 0.00 0.00 0.00 0.00 0.00 0.00 0.00 0.00 0.00 0.00
0.00 0.00 0.00 0.00 0.00 0.00 0.00 0.00 0.00 0.00 0.00 0.00 0.00 0.00 0.00 0.00 0.00 0.00 0.00 0.00 0.00 0.00 0.00 0.00 0.00 0.00 0.00 0.00 0.00 0.00 0.00 0.00 0.00 0.00 0.00 0.00 0.00 0.00 0.00 0.00 0.00 0.00 0.00 0.00 0.00 0.00 0.00 0.00 0.00
0.00 0.00 0.00 0.00 0.00 0.00 0.00 0.00 0.00 0.00 0.00 0.00 0.00 0.00 0.00 0.00 0.00 0.00 0.00 0.00 0.00 0.00 0.00 0.00 0.00 0.00 0.00 0.00 0.00 0.00 0.00 0.00 0.00 0.00 0.00 0.00 0.00 0.00 0.00 0.00 0.00 0.00 0.00 0.00 0.00 0.00 0.00 0.00 0.00
0.00 0.00 0.00 0.00 0.00 0.00 0.00 0.00 0.00 0.00 0.00 0.00 0.00 0.00 0.00 0.00 0.00 0.00 0.00 0.00 0.00 0.00 0.00 0.00 0.00 0.00 0.00 0.00 0.00 0.00 0.00 0.00 0.00 0.00 0.00 0.00 0.00 0.00 0.00 0.00 0.00 0.00 0.00 0.00 0.00 0.00 0.00 0.00 0.00
0.00 0.00 0.00 0.00 0.00 0.00 0.00 0.00 0.00 0.00 0.00 0.00 0.00 0.00 0.00 0.00 0.00 0.00 0.00 0.00 0.00 0.00 0.00 0.00 0.00 0.00 0.00 0.00 0.00 0.00 0.00 0.00 0.00 0.00 0.00 0.00 0.00 0.00 0.00 0.00 0.00 0.00 0.00 0.00 0.00 0.00 0.00 0.00 0.00
0.00 0.00 0.00 0.00 0.00 0.00 0.00 0.00 0.00 0.00 0.00 0.00 0.00 0.00 0.00 0.00 0.00 0.00 0.00 0.00 0.00 0.00 0.00 0.00 0.00 0.00 0.00 0.00 0.00 0.00 0.00 0.00 0.00 0.00 0.00 0.00 0.00 0.00 0.00 0.00 0.00 0.00 0.00 0.00 0.00 0.00 0.00 0.00 0.00
0.00 0.00 0.00 0.00 0.00 0.00 0.00 0.00 0.00 0.00 0.00 0.00 0.00 0.00 0.00 0.00 0.00 0.00 0.00 0.00 0.00 0.00 0.00 0.00 0.00 0.00 0.00 0.00 0.00 0.00 0.00 0.00 0.00 0.00 0.00 0.00 0.00 0.00 0.00 0.00 0.00 0.00 0.00 0.00 0.00 0.00 0.00 0.00 0.00
0.00 0.00 0.00 0.00 0.00 0.00 0.00 0.00 0.00 0.00 0.00 0.00 0.00 0.00 0.00 0.00 0.00 0.00 0.00 0.00 0.00 0.00 0.00 0.00 0.00 0.00 0.00 0.00 0.00 0.00 0.00 0.00 0.00 0.00 0.00 0.00 0.00 0.00 0.00 0.00 0.00 0.00 0.00 0.00 0.00 0.00 0.00 0.00 0.00
0.00 0.00 0.00 0.00 0.00 0.00 0.00 0.00 0.00 0.00 0.00 0.00 0.00 0.00 0.00 0.00 0.00 0.00 0.00 0.00 0.00 0.00 0.00 0.00 0.00 0.00 0.00 0.00 0.00 0.00 0.00 0.00 0.00 0.00 0.00 0.00 0.00 0.00 0.00 0.00 0.00 0.00 0.00 0.00 0.00 0.00 0.00 0.00 0.00
0.00 0.00 0.00 0.00 0.00 0.00 0.00 0.00 0.00 0.00 0.00 0.00 0.00 0.00 0.00 0.00 0.00 0.00 0.00 0.00 0.00 0.00 0.00 0.00 0.00 0.00 0.00 0.00 0.00 0.00 0.00 0.00 0.00 0.00 0.00 0.00 0.00 0.00 0.00 0.00 0.00 0.00 0.00 0.00 0.00 0.00 0.00 0.00 0.00
MSLP
1013.71 1013.46 1013.62 1014.24 1016.40 1017.79 1018.40 1018.24 1017.63 1017.38 1017.32 1017.49 1017.38 1017.89 1019.06 1019.56 1019.76 1020.24 1019.49 1019.43 1019.36 1019.80 1020.08 1020.29 1020.59 1020.78 1020.99 1021.12 1021.15 1021.40 1021.53 1021.61 1021.60 1021.78 1021.95 1022.04 1022.26 1022.42 1022.56 1022.56 1022.67 1022.58 1022.62 1022.58 1022.50 1022.47 1022.34 1022.27 1022.12
1013.77 1013.56 1014.18 1015.51 1017.32 1018.76 1019.08 1018.18 1017.59 1017.38 1017.56 1017.70 1017.91 1018.53 1019.19 1020.08 1019.76 1019.76 1019.73 1019.68 1019.51 1019.81 1020.17 1020.44 1020.64 1020.84 1021.03 1021.12 1021.38 1021.53 1021.63 1021.79 1021.89 1021.94 1022.22 1022.43 1022.68 1022.83 1022.94 1022.95 1023.01 1023.06 1023.11 1022.99 1022.99 1022.82 1022.81 1022.76 1022.69
1013.63 1013.94 1015.27 1016.47 1018.22 1018.77 1018.53 1018.19 1017.44 1017.55 1017.43 1017.53 1018.42 1019.05 1019.72 1020.25 1019.95 1019.70 1019.48 1019.47 1019.73 1019.99 1020.19 1020.42 1020.65 1020.88 1021.13 1021.46 1021.66 1021.79 1021.95 1022.01 1022.13 1022.30 1022.46 1022.70 1023.01 1023.26 1023.22 1023.30 1023.35 1023.36 1023.38 1023.42 1023.44 1023.41 1023.46 1023.22 1023.13
1013.91 1014.74 1016.37 1017.12 1018.01 1017.94 1017.74 1017.68 1017.20 1017.31 1017.48 1017.63 1018.56 1019.92 1020.21 1020.36 1020.21 1019.84 1019.45 1019.42 1019.85 1020.06 1020.29 1020.63 1020.80 1020.97 1021.22 1021.47 1021.78 1021.97 1022.23 1022.28 1022.48 1022.53 1022.72 1022.97 1023.23 1023.44 1023.44 1023.55 1023.61 1023.65 1023.73 1023.82 1023.71 1023.77 1023.75 1023.69 1023.53
1014.55 1015.93 1017.31 1017.98 1017.68 1017.40 1017.27 1017.16 1017.13 1017.38 1017.60 1018.10 1018.58 1020.29 1020.69 1020.66 1020.60 1020.22 1019.97 1019.79 1020.01 1020.15 1020.32 1020.67 1020.84 1021.00 1021.08 1021.39 1021.64 1021.92 1022.14 1022.38 1022.56 1022.75 1022.98 1023.21 1023.44 1023.54 1023.58 1023.70 1023.81 1023.92 1023.97 1024.03 1023.94 1023.87 1023.83 1023.83 1023.85
1015.74 1016.73 1018.12 1018.40 1017.87 1017.26 1016.98 1016.84 1017.05 1017.48 1017.88 1018.48 1019.24 1020.35 1021.07 1021.03 1020.79 1020.94 1020.54 1020.60 1020.38 1020.37 1020.39 1020.65 1020.98 1021.24 1021.37 1021.54 1021.82 1022.01 1022.16 1022.36 1022.51 1022.82 1023.06 1023.23 1023.43 1023.58 1023.62 1023.76 1023.85 1024.01 1024.09 1024.14 1024.14 1024.16 1024.14 1024.10 1024.09
1016.24 1017.59 1018.31 1018.13 1017.80 1017.19 1016.61 1016.42 1016.93 1017.40 1017.98 1018.55 1019.11 1020.80 1021.43 1021.35 1021.25 1021.26 1021.16 1021.06 1021.02 1021.02 1020.96 1021.00 1021.19 1021.49 1021.66 1021.73 1021.90 1022.09 1022.24 1022.38 1022.51 1022.69 1022.91 1023.15 1023.44 1023.64 1023.82 1024.03 1024.09 1023.97 1024.04 1024.25 1024.35 1024.36 1024.31 1024.29 1024.29
1016.36 1017.61 1018.30 1018.05 1017.81 1017.00 1016.36 1016.41 1016.72 1017.27 1018.22 1018.64 1019.27 1020.55 1021.51 1021.15 1021.36 1021.44 1021.60 1021.73 1021.76 1021.77 1021.74 1021.61 1021.59 1021.55 1021.67 1021.88 1021.94 1022.03 1022.19 1022.35 1022.54 1022.74 1023.01 1023.28 1023.41 1023.56 1023.74 1023.98 1023.98 1023.98 1023.98 1024.17 1024.59 1024.71 1024.85 1024.76 1024.83
1016.24 1017.56 1018.22 1017.80 1017.61 1016.74 1016.42 1016.64 1016.92 1017.31 1018.21 1019.41 1019.99 1020.27 1020.33 1020.81 1021.45 1021.81 1022.15 1022.30 1022.35 1022.26 1022.13 1022.07 1022.00 1021.94 1021.76 1021.79 1022.02 1022.11 1022.28 1022.50 1022.69 1022.89 1023.15 1023.43 1023.64 1023.80 1023.99 1024.21 1024.53 1024.75 1024.77 1024.66 1024.78 1024.99 1025.21 1025.36 1025.40
1016.69 1017.76 1017.50 1017.13 1016.88 1016.64 1016.47 1016.59 1016.99 1017.62 1018.73 1019.89 1020.45 1020.68 1020.81 1021.17 1021.79 1022.24 1022.68 1022.85 1022.82 1022.76 1022.71 1022.60 1022.44 1022.30 1022.17 1021.94 1021.97 1021.93 1022.09 1022.46 1022.72 1022.99 1023.39 1023.69 1023.89 1024.11 1024.38 1024.68 1024.82 1025.03 1025.22 1025.28 1025.22 1025.28 1025.32 1025.57 1025.75
1016.59 1017.06 1016.93 1016.84 1016.59 1016.45 1016.61 1016.79 1017.01 1017.77 1018.98 1019.39 1020.15 1020.84 1021.21 1021.60 1022.15 1022.55 1022.90 1022.92 1022.92 1022.99 1023.00 1022.84 1022.71 1022.52 1022.36 1022.17 1022.05 1022.14 1022.32 1022.66 1022.83 1022.88 1023.14 1023.58 1024.04 1024.36 1024.72 1025.06 1025.30 1025.42 1025.67 1025.81 1025.85 1026.01 1026.16 1026.23 1026.40
1016.40 1016.57 1016.67 1016.71 1016.58 1016.60 1016.85 1016.89 1017.43 1018.03 1018.40 1018.78 1019.51 1020.52 1021.30 1021.91 1022.30 1022.53 1022.80 1022.98 1023.11 1023.24 1023.20 1023.06 1022.86 1022.66 1022.47 1022.35 1022.15 1022.39 1022.71 1023.02 1023.16 1023.15 1023.28 1023.53 1024.12 1024.58 1024.99 1025.22 1025.46 1025.62 1025.76 1026.08 1026.33 1026.50 1026.68 1026.69 1026.63
1016.46 1016.59 1016.62 1016.73 1016.74 1016.73 1016.91 1017.28 1017.76 1018.52 1019.12 1019.44 1019.98 1020.91 1021.66 1022.08 1022.38 1022.60 1022.66 1022.96 1023.21 1023.34 1023.31 1023.24 1022.99 1022.71 1022.42 1022.29 1022.58 1022.95 1023.27 1023.57 1023.63 1023.74 1023.89 1023.95 1024.36 1024.88 1025.33 1025.75 1026.06 1026.23 1026.27 1026.48 1026.87 1027.00 1027.14 1027.24 1027.26
1016.70 1016.89 1016.90 1016.89 1016.96 1017.02 1017.34 1017.69 1018.16 1018.90 1019.63 1020.33 1020.77 1021.34 1021.86 1022.08 1022.27 1022.69 1022.86 1022.96 1023.17 1023.31 1023.30 1023.27 1023.17 1022.77 1022.51 1022.60 1022.89 1023.26 1023.61 1023.87 1023.97 1024.17 1024.45 1024.58 1024.80 1025.27 1025.78 1026.27 1026.55 1026.70 1026.71 1026.94 1027.07 1027.25 1027.39 1027.76 1027.61
1017.05 1017.37 1017.34 1017.05 1017.12 1017.28 1017.55 1018.28 1018.15 1018.82 1019.94 1020.74 1021.32 1021.70 1022.03 1022.12 1022.31 1022.41 1022.55 1022.77 1022.90 1023.10 1023.20 1023.28 1023.18 1023.03 1022.92 1023.02 1023.18 1023.41 1023.67 1023.93 1024.18 1024.44 1024.79 1025.10 1025.38 1025.77 1026.24 1026.57 1026.83 1027.08 1027.05 1027.22 1027.33 1027.56 1027.53 1027.96 1028.06
1017.77 1018.11 1018.16 1017.33 1017.39 1017.54 1018.01 1018.16 1017.94 1018.85 1019.89 1020.84 1021.49 1021.93 1022.08 1022.15 1022.09 1022.24 1022.38 1022.66 1022.88 1022.97 1023.13 1023.19 1023.13 1023.31 1023.45 1023.22 1023.55 1023.87 1024.05 1024.18 1024.31 1024.48 1024.88 1025.43 1025.89 1026.32 1026.76 1027.22 1027.51 1027.57 1027.57 1027.73 1027.87 1027.95 1028.08 1028.47 1028.50
1018.96 1018.84 1018.72 1017.93 1017.62 1017.89 1018.42 1018.34 1018.18 1018.99 1019.87 1020.73 1021.20 1021.68 1021.85 1022.03 1022.14 1022.16 1022.21 1022.51 1022.83 1022.97 1023.10 1023.26 1023.27 1023.46 1023.66 1023.76 1024.16 1024.53 1024.77 1024.94 1025.16 1025.29 1025.34 1025.90 1026.35 1026.67 1026.99 1027.50 1027.79 1027.73 1027.83 1028.06 1028.20 1028.65 1028.53 1029.13 1029.15
1019.26 1019.34 1018.78 1018.28 1018.04 1018.27 1018.68 1018.33 1018.50 1019.12 1019.76 1019.88 1020.51 1021.00 1021.38 1021.51 1021.39 1021.85 1022.19 1022.50 1022.77 1023.02 1023.19 1023.28 1023.33 1023.41 1023.57 1024.12 1024.76 1025.16 1025.49 1025.77 1025.88 1026.08 1026.26 1026.66 1026.77 1026.95 1027.26 1027.82 1028.12 1028.16 1028.36 1028.69 1028.78 1029.07 1029.20 1029.68 1029.70
1018.78 1018.98 1018.77 1018.22 1017.79 1018.35 1018.39 1018.31 1017.96 1018.56 1019.32 1019.50 1019.81 1019.94 1020.23 1020.42 1020.87 1021.67 1022.09 1022.44 1022.80 1023.02 1023.19 1023.24 1023.35 1023.52 1023.53 1024.03 1024.81 1025.50 1026.10 1026.56 1026.70 1026.78 1026.73 1027.00 1027.20 1027.34 1027.55 1028.03 1028.42 1028.52 1028.77 1029.19 1029.14 1029.46 1029.85 1030.49 1030.52
1018.84 1019.04 1018.82 1018.37 1017.88 1018.42 1018.19 1018.18 1017.77 1017.95 1017.85 1017.72 1017.86 1018.26 1018.56 1019.72 1020.46 1021.15 1021.68 1022.02 1022.35 1022.64 1022.89 1023.11 1023.27 1023.51 1023.71 1023.79 1024.46 1025.25 1026.20 1027.03 1027.30 1027.35 1027.48 1027.53 1027.56 1027.66 1027.80 1028.29 1028.66 1028.88 1029.15 1029.54 1029.56 1029.69 1030.54 1031.17 1030.92
1018.76 1018.80 1018.75 1018.70 1018.37 1018.42 1018.56 1018.17 1017.49 1016.50 1016.42 1016.23 1016.24 1016.19 1016.95 1017.76 1019.05 1020.33 1021.10 1021.46 1021.90 1022.22 1022.53 1022.79 1023.07 1023.32 1023.67 1024.07 1024.62 1025.65 1026.58 1027.22 1027.74 1028.04 1028.26 1028.35 1028.20 1028.21 1028.40 1028.76 1029.01 1029.42 1029.59 1029.97 1030.25 1030.27 1030.51 1031.59 1031.94
1018.49 1018.05 1018.44 1018.86 1019.26 1019.24 1018.93 1017.45 1016.74 1016.08 1015.64 1015.30 1014.66 1015.19 1015.42 1016.67 1018.22 1019.40 1020.21 1020.87 1021.20 1021.61 1022.04 1022.48 1022.86 1023.20 1023.68 1024.07 1024.64 1024.97 1025.77 1026.96 1027.99 1028.39 1028.76 1028.91 1028.95 1028.92 1029.12 1029.29 1029.68 1030.03 1030.27 1030.50 1030.77 1030.85 1031.02 1031.42 1032.22
1017.74 1017.87 1018.50 1018.97 1019.58 1019.81 1019.50 1019.15 1015.74 1015.35 1015.11 1014.45 1013.33 1013.63 1014.50 1015.47 1016.49 1017.72 1018.56 1019.38 1020.42 1021.14 1021.63 1022.10 1022.65 1023.12 1023.64 1024.13 1024.56 1025.08 1026.07 1026.85 1028.01 1028.76 1029.09 1029.39 1029.53 1029.62 1029.81 1030.00 1030.29 1030.55 1030.71 1031.26 1031.24 1031.64 1032.06 1032.44 1032.70
1017.54 1018.31 1019.33 1020.11 1020.55 1020.36 1019.17 1018.79 1015.31 1014.80 1013.51 1013.08 1012.29 1012.59 1013.44 1014.53 1015.67 1016.83 1018.07 1019.15 1020.19 1020.97 1021.60 1021.82 1022.36 1022.98 1023.58 1024.16 1024.72 1025.11 1025.76 1026.98 1028.08 1028.83 1029.25 1029.71 1030.10 1030.32 1030.43 1030.58 1030.72 1030.94 1031.33 1031.63 1032.05 1032.44 1032.98 1033.23 1033.26
1017.63 1018.87 1020.33 1021.15 1021.43 1019.56 1018.39 1017.94 1014.17 1013.18 1012.37 1011.90 1011.83 1012.09 1012.94 1014.04 1015.41 1016.57 1017.72 1018.78 1019.77 1020.40 1021.01 1021.52 1021.91 1022.68 1023.42 1024.12 1024.76 1025.31 1025.76 1026.46 1027.33 1028.19 1028.86 1029.59 1030.16 1030.51 1030.76 1030.71 1030.94 1031.11 1031.44 1031.85 1032.17 1032.83 1033.37 1033.46 1033.77
1017.29 1017.80 1019.11 1020.14 1021.00 1019.81 1018.83 1016.42 1013.18 1011.91 1011.23 1011.48 1011.82 1012.21 1013.23 1014.55 1015.51 1016.42 1017.19 1018.10 1019.12 1019.96 1020.60 1021.11 1021.66 1022.42 1023.26 1024.02 1024.72 1025.34 1025.89 1026.53 1027.34 1027.96 1028.68 1029.29 1029.74 1030.20 1030.66 1030.86 1030.96 1031.40 1031.81 1032.18 1032.70 1033.32 1033.80 1034.04 1034.14
1017.07 1017.39 1017.69 1019.29 1020.95 1020.41 1017.40 1014.80 1012.85 1011.81 1011.67 1011.47 1011.54 1012.48 1013.76 1014.63 1015.41 1016.13 1017.04 1017.80 1018.68 1019.47 1020.07 1020.56 1021.26 1022.07 1022.92 1023.67 1024.47 1025.17 1025.78 1026.41 1027.16 1028.04 1028.73 1029.23 1029.87 1030.32 1030.87 1031.05 1031.45 1031.88 1032.25 1032.61 1033.02 1033.54 1034.07 1034.19 1034.14
1015.50 1016.27 1018.04 1019.35 1020.43 1019.53 1016.51 1014.74 1012.48 1011.69 1011.48 1011.19 1011.62 1012.56 1013.55 1014.54 1015.48 1016.24 1016.89 1017.62 1018.38 1019.09 1019.88 1020.62 1021.11 1021.71 1022.56 1023.40 1024.09 1024.85 1025.54 1026.19 1026.88 1027.60 1028.38 1029.03 1029.72 1030.20 1030.70 1031.20 1031.67 1032.11 1032.43 1032.79 1033.31 1033.76 1034.03 1034.20 1034.28
1015.77 1015.91 1016.68 1017.40 1018.09 1017.86 1016.21 1012.42 1010.45 1010.22 1010.32 1010.77 1011.19 1011.83 1013.10 1014.13 1014.90 1015.88 1016.73 1017.56 1018.32 1019.00 1019.74 1020.41 1021.05 1021.63 1022.46 1023.15 1023.88 1024.60 1025.30 1025.95 1026.68 1027.45 1028.23 1028.87 1029.54 1030.03 1030.53 1031.01 1031.51 1031.96 1032.37 1032.73 1033.16 1033.59 1033.95 1034.27 1034.37
1014.47 1014.73 1015.44 1016.22 1016.59 1016.30 1015.20 1009.10 1009.20 1009.32 1009.54 1010.20 1010.74 1011.39 1012.16 1013.18 1014.33 1015.35 1016.33 1017.21 1018.11 1018.80 1019.32 1019.94 1020.72 1021.38 1022.10 1022.85 1023.57 1024.32 1025.02 1025.72 1026.54 1027.33 1028.08 1028.78 1029.23 1029.84 1030.30 1031.04 1031.51 1031.99 1032.39 1032.67 1032.92 1033.24 1033.80 1034.31 1034.44
Thickness
5763 5765 5764 5751 5711 5691 5681 5694 5704 5704 5704 5711 5712 5704 5692 5692 5688 5672 5705 5708 5707 5703 5700 5698 5696 5693 5692 5692 5692 5689 5689 5688 5689 5688 5689 5689 5687 5686 5686 5687 5686 5687 5687 5688 5689 5689 5691 5692 5693
5764 5765 5756 5729 5691 5669 5673 5699 5702 5709 5709 5707 5710 5704 5694 5685 5699 5699 5701 5707 5708 5705 5702 5699 5697 5694 5693 5693 5690 5689 5689 5688 5688 5688 5685 5684 5682 5682 5681 5683 5682 5682 5682 5683 5682 5684 5684 5685 5685
5766 5763 5738 5710 5682 5674 5678 5699 5704 5711 5711 5717 5706 5703 5696 5691 5701 5703 5709 5709 5707 5704 5702 5700 5698 5697 5694 5691 5689 5689 5687 5687 5687 5685 5684 5682 5679 5677 5679 5678 5678 5679 5678 5678 5677 5678 5677 5680 5680
5759 5749 5730 5699 5700 5703 5700 5703 5711 5713 5718 5717 5705 5691 5698 5702 5703 5708 5711 5710 5706 5704 5702 5700 5698 5697 5695 5694 5691 5689 5686 5686 5683 5683 5681 5680 5678 5676 5677 5677 5677 5676 5675 5674 5675 5675 5675 5675 5676
5753 5732 5699 5694 5706 5711 5711 5710 5711 5713 5714 5711 5711 5689 5689 5700 5702 5706 5707 5708 5706 5704 5702 5699 5697 5696 5696 5694 5692 5689 5687 5685 5684 5682 5679 5678 5676 5676 5677 5676 5675 5673 5672 5671 5672 5673 5674 5673 5672
5731 5722 5688 5684 5699 5713 5716 5716 5715 5712 5711 5706 5698 5691 5689 5699 5701 5701 5705 5704 5704 5703 5702 5700 5697 5695 5694 5692 5690 5688 5687 5685 5683 5681 5679 5678 5676 5675 5676 5674 5673 5671 5671 5670 5670 5670 5670 5670 5669
5722 5706 5695 5694 5696 5707 5717 5725 5711 5709 5708 5708 5705 5685 5689 5695 5698 5699 5700 5701 5701 5700 5699 5698 5696 5694 5692 5691 5689 5687 5686 5685 5684 5682 5681 5678 5676 5674 5673 5671 5670 5670 5670 5667 5666 5666 5666 5666 5666
5721 5710 5706 5701 5693 5704 5721 5723 5718 5715 5708 5713 5709 5686 5683 5696 5697 5697 5696 5695 5694 5694 5694 5694 5693 5693 5691 5689 5688 5687 5685 5684 5682 5680 5677 5675 5674 5673 5671 5668 5668 5669 5669 5666 5663 5662 5660 5660 5658
5729 5694 5687 5703 5698 5711 5720 5716 5722 5719 5708 5701 5698 5699 5703 5700 5695 5693 5690 5690 5689 5690 5691 5691 5691 5690 5690 5689 5688 5686 5684 5682 5680 5678 5676 5674 5673 5671 5670 5668 5664 5662 5661 5660 5658 5656 5653 5652 5651
5711 5687 5704 5714 5713 5710 5716 5718 5716 5713 5703 5694 5693 5697 5698 5697 5692 5687 5684 5683 5684 5685 5685 5686 5687 5687 5686 5686 5686 5686 5684 5681 5679 5677 5674 5672 5669 5667 5664 5661 5659 5657 5655 5653 5652 5650 5650 5648 5647
5714 5697 5714 5715 5718 5719 5714 5716 5718 5704 5700 5699 5695 5694 5693 5690 5686 5683 5681 5681 5681 5681 5680 5682 5683 5684 5684 5684 5683 5683 5681 5678 5677 5675 5673 5670 5666 5664 5661 5657 5654 5651 5648 5647 5646 5644 5642 5641 5638
5711 5716 5716 5715 5717 5717 5710 5716 5712 5710 5710 5709 5704 5696 5690 5687 5684 5683 5680 5679 5677 5676 5677 5678 5680 5681 5681 5681 5681 5679 5676 5674 5672 5672 5670 5668 5663 5659 5656 5653 5650 5648 5645 5643 5641 5638 5636 5634 5633
5708 5711 5715 5712 5712 5712 5713 5709 5708 5703 5699 5699 5696 5691 5686 5683 5682 5681 5680 5678 5673 5673 5674 5674 5676 5677 5679 5678 5676 5673 5670 5667 5667 5665 5663 5662 5658 5655 5650 5646 5643 5641 5639 5636 5633 5631 5629 5627 5624
5706 5705 5708 5708 5708 5708 5703 5703 5705 5698 5690 5689 5689 5684 5680 5680 5679 5676 5676 5675 5673 5671 5671 5670 5671 5673 5673 5673 5671 5667 5664 5662 5661 5659 5657 5655 5653 5648 5644 5640 5637 5634 5633 5630 5628 5625 5622 5619 5618
5703 5696 5697 5698 5700 5700 5701 5691 5694 5695 5684 5683 5680 5676 5675 5676 5675 5675 5675 5673 5673 5671 5669 5666 5666 5667 5667 5666 5664 5662 5660 5658 5656 5654 5652 5649 5646 5642 5637 5634 5631 5628 5626 5623 5621 5618 5617 5613 5610
5690 5683 5674 5696 5692 5697 5693 5677 5700 5687 5682 5678 5674 5667 5669 5672 5673 5671 5671 5669 5668 5667 5666 5664 5663 5661 5659 5660 5657 5654 5653 5652 5651 5649 5646 5641 5637 5634 5630 5626 5623 5620 5618 5615 5614 5612 5610 5604 5602
5666 5659 5664 5678 5686 5686 5680 5682 5695 5680 5678 5675 5669 5665 5666 5666 5665 5666 5667 5665 5662 5662 5660 5659 5658 5656 5654 5651 5648 5645 5643 5642 5640 5639 5638 5633 5629 5626 5623 5619 5615 5614 5612 5609 5604 5601 5600 5592 5589
5652 5654 5662 5669 5681 5677 5670 5674 5683 5677 5674 5678 5670 5664 5663 5664 5667 5662 5661 5659 5658 5656 5654 5653 5652 5650 5648 5644 5639 5636 5634 5632 5630 5628 5627 5623 5621 5619 5616 5611 5608 5606 5602 5597 5595 5590 5588 5580 5577
5666 5659 5664 5672 5679 5668 5663 5669 5680 5674 5669 5670 5669 5667 5668 5670 5663 5658 5655 5653 5651 5650 5648 5647 5646 5644 5643 5639 5633 5628 5623 5619 5618 5618 5618 5615 5612 5610 5607 5603 5598 5596 5592 5587 5583 5577 5572 5565 5562
5658 5654 5650 5660 5670 5656 5663 5661 5671 5671 5673 5680 5680 5679 5678 5663 5657 5654 5650 5649 5648 5647 5645 5642 5640 5637 5635 5635 5629 5623 5616 5609 5607 5606 5605 5604 5603 5601 5599 5594 5590 5586 5581 5576 5572 5567 5557 5549 5548
5650 5644 5646 5650 5657 5654 5650 5642 5661 5678 5675 5680 5685 5691 5684 5677 5664 5653 5647 5647 5644 5643 5640 5638 5635 5632 5628 5625 5621 5613 5606 5601 5597 5594 5592 5591 5591 5590 5587 5583 5579 5573 5569 5563 5558 5554 5548 5535 5528
5636 5653 5650 5648 5638 5622 5641 5624 5657 5670 5673 5677 5690 5684 5688 5678 5663 5653 5647 5642 5642 5639 5635 5632 5628 5624 5620 5617 5613 5612 5606 5596 5586 5584 5581 5579 5577 5577 5573 5569 5564 5559 5554 5549 5544 5539 5533 5526 5515
5644 5651 5643 5640 5624 5622 5625 5606 5641 5667 5667 5678 5695 5690 5686 5676 5669 5659 5653 5648 5639 5633 5629 5624 5620 5616 5613 5609 5606 5602 5594 5587 5577 5572 5569 5567 5565 5562 5558 5554 5549 5544 5539 5532 5527 5520 5513 5505 5498
5642 5635 5622 5610 5604 5587 5626 5615 5626 5656 5680 5685 5698 5699 5686 5675 5668 5661 5649 5639 5630 5622 5618 5618 5614 5609 5605 5600 5596 5593 5587 5577 5568 5562 5559 5554 5550 5546 5542 5538 5534 5528 5521 5515 5508 5501 5491 5485 5479
5631 5620 5590 5583 5573 5599 5619 5608 5651 5663 5677 5687 5697 5693 5677 5671 5660 5650 5639 5633 5623 5618 5612 5610 5609 5602 5597 5592 5586 5582 5578 5573 5566 5559 5552 5545 5539 5533 5528 5525 5520 5515 5508 5501 5494 5484 5475 5469 5460
5615 5616 5591 5578 5577 5592 5598 5604 5645 5663 5678 5676 5676 5679 5664 5653 5649 5641 5635 5629 5620 5613 5607 5605 5602 5596 5588 5583 5577 5572 5568 5562 5555 5549 5543 5536 5530 5523 5516 5511 5507 5500 5492 5485 5476 5466 5457 5449 5442
5607 5602 5621 5596 5512 5549 5602 5625 5647 5655 5658 5664 5671 5666 5648 5643 5638 5632 5626 5620 5613 5607 5603 5600 5594 5589 5582 5576 5569 5563 5558 5552 5545 5538 5531 5524 5517 5510 5503 5498 5491 5483 5475 5467 5458 5449 5438 5430 5424
5611 5612 5585 5567 5560 5556 5593 5604 5635 5649 5650 5660 5665 5652 5642 5634 5626 5621 5616 5611 5606 5601 5595 5589 5587 5583 5575 5568 5562 5556 5549 5543 5536 5529 5521 5513 5505 5498 5491 5484 5475 5466 5458 5449 5439 5430 5421 5412 5404
5595 5593 5594 5591 5573 5569 5566 5617 5639 5652 5655 5656 5657 5648 5637 5628 5622 5614 5608 5602 5597 5592 5585 5581 5576 5571 5565 5560 5553 5546 5540 5533 5526 5518 5509 5501 5493 5486 5478 5470 5461 5452 5443 5434 5424 5414 5403 5393 5384
5596 5596 5584 5574 5575 5567 5571 5641 5649 5648 5654 5649 5649 5642 5631 5629 5620 5611 5601 5592 5586 5583 5579 5575 5568 5563 5557 5550 5544 5538 5531 5523 5514 5506 5496 5488 5481 5472 5464 5452 5443 5434 5425 5417 5409 5398 5385 5373 5364